sat.trackr.live / text

‹ back to catalog

STARLINK-6297

NORAD 57352 · 2023-099AA

PAYLOAD ACTIVE UNKNOWN

§ Identity

Operator
Country
US
Launch date
2023-07-16
Launch site
AFETR
Launch vehicle
Mass (kg)
RCS (m²)

Purposes: comms

External: N2YO · Heavens-Above · Gunter

§ Orbital elements

Epoch: 2026-05-24T18:27:04.934304Z

Period
94.27 min
Inclination
43.0007°
Eccentricity
0.0001323
Mean motion
15.27588336 rev/d
Perigee alt
482.1 km
Apogee alt
483.9 km
Semi-major
6,861.2 km
B*
5.4552e-5
RAAN
172.1121°
Arg perigee
272.8398°
Mean anomaly
87.2302°
Rev number
15,783

§ Raw data

STARLINK-62971 57352U 23099AA  26144.76880711  .00001240  00000+0  54552-4 0  99912 57352  43.0007 172.1121 0001323 272.8398  87.2302 15.27588336157835

JSON: /api/v1/satellites/57352 · /tle

For live sub-satellite position, see the globe view (requires WebGL).

§ Visibility from observer

Set your observer location to see the next 7 days of passes ≥ 10°. The values pass through the URL so the page stays shareable.

No JS? Fill the form by hand. The geolocation button needs JavaScript.